Location: Ahausen
(50.4985°N, 8.2722°E)
Time: 03:07:48
(UTC+00:00)

NOSS 2-2 (D) - Pass Details

Date: 18 September 2020
Orbit: 462 x 1746 km, 63.3° (Epoch: 14 October)

Event Time Altitude Azimuth Distance (km) Brightness Sun altitude
Rises 19:20:57 0° 221° (SW) 2,481 6.9 -17.4°
Reaches altitude 10° 19:22:57 10° 221° (SW) 1,618 5.9 -17.7°
Maximum altitude 19:26:25 87° 136° (SE) 504 3.0 -18.2°
Drops below altitude 10° 19:30:28 10° 44° (NE) 1,877 5.9 -18.7°
Enters shadow 19:32:06 - 44° (NE) 2,567 6.6 -19.0°
